Presure
178 189 188 181 188 192 194 198 200 203 178 173 170 165 211 176 159 160 179 160 170 167 186 187 195 200 190 189 196 201 201 181 81 194 155 188 168 132 154 145 167 125 179 180 140
174 177 183 186 179 179 182 177 189 187 183 183 193 193 179 172 180 173 172 173 174 180 199 193 184 209 210 206 192 206 195 213 196 143 127 189 161 134 139 189 94 186 144 153 89
187 181 182 180 169 173 173 156 168 181 164 182 184 176 194 206 180 166 185 184 188 179 190 182 197 193 204 210 188 199 212 221 211 206 204 137 127 102 184 167 143 160 135 175 75
174 180 167 168 168 162 165 167 162 164 168 200 215 166 171 159 176 180 226 215 175 210 214 198 202 199 196 190 201 210 189 219 163 214 185 195 185 207 207 157 184 131 131 120 149
177 164 168 169 177 167 165 167 178 184 180 177 177 200 169 216 198 204 217 255 222 192 216 227 334 201 201 216 213 203 217 215 201 198 200 178 195 192 196 206 188 156 142 135 133
168 169 183 159 170 170 177 177 172 178 188 202 227 188 228 230 230 274 226 272 249 286 291 520 527 529 420 356 271 243 223 218 208 221 190 165 187 194 194 184 192 87 200 117 137
172 177 154 162 169 166 177 172 165 184 213 218 189 219 215 219 244 264 254 266 267 266 368 495 516 481 514 508 513 292 260 239 227 224 216 174 194 199 196 195 186 196 181 182 158
179 178 164 168 170 170 171 176 172 211 204 232 225 205 202 222 249 243 251 254 262 252 359 480 470 431 464 457 475 511 540 274 260 234 232 209 196 185 194 196 190 183 188 145 149
177 163 167 172 167 166 171 180 203 195 234 229 206 195 208 238 245 238 241 241 247 243 358 387 451 464 485 469 466 512 548 541 444 249 247 220 192 195 192 192 196 194 187 183 169
168 170 167 169 170 162 183 198 193 224 222 215 198 199 207 225 241 237 235 235 240 238 344 339 440 452 495 478 478 487 522 515 453 539 143 264 215 204 192 138 189 191 191 197 182
175 171 173 173 164 199 192 199 199 227 216 204 188 190 206 242 237 231 222 231 230 232 256 330 112 439 452 488 480 482 502 487 468 455 465 236 247 205 199 193 176 188 162 187 185
171 173 182 198 194 184 187 199 199 219 214 204 199 193 206 207 229 230 230 221 160 167 237 306 330 449 440 499 491 487 483 504 468 507 512 502 251 228 199 197 191 192 192 204 195
196 195 185 190 190 187 187 198 197 217 208 205 184 190 206 203 230 233 232 221 223 229 230 269 320 336 450 490 472 507 491 493 480 509 132 527 399 237 237 199 198 198 196 201 199
213 206 209 213 211 218 211 198 198 214 205 201 184 193 211 210 223 196 236 237 236 229 252 243 286 315 339 502 499 515 504 491 479 469 452 499 468 285 244 226 201 201 196 195 209
196 194 197 214 193 203 216 196 198 210 204 191 189 199 210 231 228 234 237 258 245 247 254 236 254 288 316 399 455 432 439 436 436 455 448 453 444 428 284 233 218 209 193 198 199
197 182 190 196 192 199 207 195 195 203 197 188 187 201 211 223 217 212 243 236 230 237 253 235 239 252 286 319 334 441 430 427 423 431 412 450 447 439 280 338 233 211 205 174 191
191 205 198 190 211 195 206 211 194 202 191 188 193 198 222 219 212 218 220 231 238 229 233 253 255 242 258 276 300 323 433 417 416 416 413 447 454 439 343 273 276 257 208 200 200
189 208 199 213 214 193 201 209 209 204 191 187 191 190 225 217 211 216 217 223 232 226 234 240 247 260 237 249 271 280 316 334 444 437 431 429 426 427 443 282 276 256 234 209 200
214 202 204 196 211 204 206 211 214 201 190 181 190 181 229 216 213 202 199 222 219 221 223 250 252 250 248 250 241 276 276 310 323 421 433 431 444 430 411 408 257 275 262 244 219
182 188 200 195 218 208 207 213 215 191 187 184 184 213 227 212 218 213 213 224 219 238 242 235 222 237 252 235 243 238 268 275 312 324 328 428 426 429 404 395 396 254 250 245 241
189 205 207 214 213 220 210 225 212 195 187 172 177 214 222 207 223 236 225 226 240 232 238 222 218 236 259 249 225 239 264 246 271 286 331 326 373 444 415 393 386 386 257 246 235
219 201 221 228 227 240 224 208 192 188 189 199 188 229 209 211 227 229 230 235 222 229 234 243 245 216 232 245 256 241 229 269 238 279 292 311 350 333 450 440 376 386 378 319 255
314 231 290 275 202 224 209 198 210 193 182 203 214 230 207 197 184 196 222 229 221 233 223 235 243 254 256 219 250 257 234 262 279 248 273 295 292 351 332 415 425 385 364 377 392
174 257 253 274 205 221 199 179 209 198 201 203 225 220 212 203 207 196 215 239 240 221 231 224 236 241 238 254 232 232 245 251 245 279 268 272 266 298 349 338 336 432 404 367 366
229 235 231 214 234 199 187 216 219 210 205 223 218 229 202 189 184 214 208 220 230 226 225 230 233 231 230 236 255 248 247 237 230 260 233 268 279 286 316 339 345 327 453 427 383
261 205 252 241 222 222 235 236 219 217 226 197 208 211 207 218 227 241 213 216 219 227 224 221 239 231 226 230 236 239 250 243 245 225 255 265 278 288 291 320 350 343 319 442 422
251 246 216 248 245 241 237 231 227 219 216 217 206 196 210 212 206 208 222 212 222 222 228 224 215 237 221 227 228 241 238 225 255 255 256 260 261 273 276 311 323 353 342 312 402
Wind_Speed
14 10 7 8 9 13 19 22 27 31 38 43 44 48 51 72 50 54 81 64 81 82 106 107 117 121 107 107 114 118 111 88 14 114 101 118 105 78 93 82 84 58 77 79 73
15 16 12 11 15 16 19 22 23 26 33 38 42 51 59 57 74 81 87 95 95 95 112 102 88 120 128 119 99 118 95 102 109 68 63 112 109 86 82 104 40 95 75 69 38
14 14 10 12 18 13 21 21 28 32 35 41 45 48 52 55 70 70 92 99 106 85 103 88 105 100 112 121 96 102 118 139 122 114 115 61 52 68 109 93 81 78 70 86 54
14 12 14 18 20 24 27 30 33 37 39 32 36 46 52 53 68 75 67 93 83 118 129 106 117 114 106 97 108 123 95 123 78 129 109 116 104 121 119 94 99 79 74 61 83
11 13 17 19 21 25 25 29 28 31 35 41 42 30 42 35 54 60 68 68 76 89 110 118 73 117 118 142 138 118 145 137 114 110 116 98 121 111 106 125 110 94 83 81 80
12 15 15 15 20 21 26 28 30 34 41 45 52 33 52 55 46 68 60 63 58 69 73 44 38 33 59 83 145 154 153 145 124 142 106 108 114 117 123 109 112 62 108 70 85
14 16 15 20 22 24 31 31 30 44 52 50 39 51 52 51 67 67 61 68 67 68 73 48 44 32 27 28 26 121 149 146 150 137 145 96 125 124 133 134 115 120 100 100 89
16 16 17 22 26 28 33 39 36 49 51 48 49 48 44 56 68 66 72 69 72 71 78 51 48 29 30 26 21 23 23 116 147 143 149 137 132 114 136 139 129 119 119 105 104
17 17 21 26 27 29 36 42 47 49 42 45 47 45 54 70 71 70 70 69 72 73 86 78 52 47 31 25 24 19 13 20 63 135 150 127 121 133 142 139 145 138 122 114 109
18 21 24 27 30 30 46 45 45 44 45 46 47 48 60 69 72 74 72 69 71 71 94 90 56 50 38 27 20 18 10 11 50 25 70 154 144 133 138 83 142 139 132 131 109
25 25 29 32 29 37 42 43 43 43 45 47 45 48 61 73 75 76 74 75 70 72 84 95 17 48 46 30 20 12 9 16 32 50 57 114 143 131 140 144 118 143 113 116 121
28 31 35 33 35 38 41 44 44 45 45 49 50 54 64 67 74 76 79 70 34 38 78 94 94 53 48 32 22 12 6 6 20 13 24 41 115 143 136 148 144 146 134 151 130
29 29 32 35 37 39 42 43 43 44 47 50 47 54 63 64 69 73 76 72 69 71 72 84 100 100 53 39 28 11 1 2 4 7 50 19 87 123 150 147 144 152 146 146 138
31 32 33 33 32 34 33 40 43 43 47 49 47 57 64 59 70 64 72 72 68 71 79 79 91 100 100 39 26 14 11 18 19 15 8 17 40 142 129 146 147 147 147 136 145
32 33 33 35 35 36 35 37 41 43 46 47 50 58 63 66 68 68 68 65 72 75 77 74 82 90 98 79 36 33 36 31 23 18 5 12 37 58 139 125 143 152 140 141 140
35 29 32 33 36 37 37 37 41 45 46 50 51 61 64 65 68 70 63 67 72 74 75 74 74 80 90 102 98 30 26 24 19 20 4 6 23 38 138 93 130 141 153 110 124
34 36 34 31 36 36 38 39 39 40 43 49 57 60 63 62 65 66 67 64 64 71 74 76 80 75 80 87 95 91 29 24 16 11 8 3 7 23 92 138 138 144 147 142 144
34 37 36 38 37 37 37 40 38 38 44 49 55 58 58 59 60 62 65 64 65 69 69 72 73 78 72 76 81 84 85 76 18 9 4 5 3 11 20 137 140 138 132 144 142
35 36 38 36 36 37 37 40 38 35 44 46 54 50 56 58 58 60 65 60 65 68 71 71 72 71 71 71 68 79 74 81 72 25 15 9 5 8 15 30 136 142 141 134 137
36 37 39 38 39 35 35 37 36 37 43 47 52 54 53 56 56 58 58 58 62 64 64 66 70 69 70 67 65 60 68 71 79 69 61 14 6 3 13 23 33 137 132 128 133
40 41 42 37 34 31 36 34 35 36 43 44 51 52 51 53 54 53 55 58 66 64 63 64 65 64 70 66 58 60 70 55 62 70 68 53 34 4 8 18 29 37 138 133 123
37 39 38 35 31 27 31 32 33 38 42 44 49 48 51 53 52 53 54 60 57 65 66 70 71 62 61 62 63 59 54 71 49 69 68 59 53 41 9 14 22 31 43 101 139
29 32 23 23 30 27 28 27 32 37 45 44 48 44 48 52 55 59 57 57 57 62 57 69 74 79 75 58 65 64 57 62 75 47 59 68 54 48 34 10 15 29 37 44 50
30 28 25 22 27 25 28 35 32 37 39 44 46 45 48 52 57 60 57 65 67 64 66 62 73 76 69 76 61 57 59 63 59 71 60 56 46 52 42 29 24 26 33 42 48
30 27 25 27 28 35 36 30 33 37 40 41 44 41 49 55 53 56 59 63 67 63 63 69 73 68 68 73 78 70 62 56 51 56 46 57 63 60 55 42 26 18 28 36 43
27 35 26 29 26 27 29 32 36 40 39 45 47 51 55 51 56 59 53 58 65 65 64 59 78 71 65 70 72 74 74 63 58 49 52 59 71 71 56 50 36 22 14 30 39
30 30 29 28 25 26 31 34 36 39 42 45 51 53 50 50 55 54 63 60 68 69 65 64 56 72 60 66 67 78 69 57 71 64 61 60 59 64 60 60 46 29 19 16 28
Wind_Direction
344 336 310 296 262 257 259 263 267 266 266 265 260 267 265 252 274 273 249 266 256 255 238 241 237 235 243 244 243 241 240 238 231 227 234 221 234 251 230 239 225 244 221 222 232
349 343 322 304 303 295 284 287 283 275 264 262 259 257 256 263 243 255 254 250 255 257 244 256 260 241 239 242 253 245 245 229 242 243 231 225 235 247 249 232 257 230 226 218 235
323 332 312 297 316 310 295 310 292 271 291 268 266 270 258 255 254 267 253 255 256 275 265 273 262 267 255 246 254 255 246 233 240 240 237 238 226 226 238 233 241 231 233 220 235
344 319 332 322 310 314 300 287 295 286 279 296 300 286 276 280 260 266 256 254 277 252 252 267 261 264 265 263 262 256 261 243 242 240 233 240 245 230 231 242 241 246 244 234 232
321 344 329 316 293 302 299 293 302 308 289 278 290 298 266 296 270 287 293 300 267 270 259 257 285 267 267 253 256 257 248 244 250 247 244 246 241 246 239 230 239 234 233 240 241
337 331 313 332 321 312 313 313 307 311 316 311 315 310 324 324 325 332 319 332 306 322 315 341 340 311 271 261 245 245 245 246 247 239 245 228 244 247 242 247 240 254 232 239 239
336 328 333 325 326 314 323 319 312 322 318 318 328 325 330 334 336 334 341 340 336 329 350 348 354 332 320 303 291 242 239 239 241 243 237 232 241 242 241 243 244 237 241 234 232
336 331 327 328 326 327 324 322 321 320 319 321 328 331 331 340 336 347 345 348 345 338 359 352 358 342 329 315 295 283 263 240 233 236 237 234 235 236 240 241 243 243 239 225 225
343 335 334 330 329 325 323 324 322 322 325 326 334 333 343 344 341 346 352 355 352 345 6 6 359 354 344 327 307 301 301 250 222 231 232 229 229 232 237 239 240 240 240 239 233
338 337 334 331 328 326 324 320 323 335 327 334 340 343 348 346 343 347 356 359 356 350 13 13 2 2 357 344 329 313 281 245 221 231 235 229 227 227 231 237 238 240 240 239 237
336 336 329 329 329 323 321 325 329 337 329 340 343 346 349 347 348 351 359 358 360 358 3 18 256 3 6 355 345 326 291 245 224 225 221 227 225 223 227 231 228 239 234 235 237
336 334 328 327 327 328 327 330 340 339 336 342 350 349 350 351 348 349 354 0 350 356 5 22 21 8 8 4 355 335 299 276 225 236 220 221 222 220 223 228 231 236 236 239 238
336 335 335 332 330 332 331 332 340 340 341 344 354 353 351 352 350 349 352 360 4 7 8 14 27 26 8 6 9 359 10 90 206 80 240 192 211 220 220 223 228 231 235 238 238
338 336 337 342 344 348 345 333 341 345 344 348 356 354 353 354 353 358 354 357 5 8 10 15 25 29 29 9 17 30 78 94 94 95 216 188 209 211 218 218 225 229 233 234 236
346 346 344 346 342 347 351 336 343 347 344 352 357 354 355 357 356 356 357 14 6 7 13 17 22 29 33 32 62 55 75 78 74 80 102 207 215 220 213 219 221 225 230 233 235
345 353 351 349 346 348 351 339 346 350 346 355 355 354 357 359 355 0 9 6 9 9 14 17 22 25 31 35 35 58 65 80 80 81 218 65 208 217 210 218 221 223 226 226 230
346 342 347 353 351 345 350 347 346 346 348 356 354 354 358 1 358 358 1 8 14 9 12 19 26 24 29 35 37 37 41 45 61 67 342 39 214 230 212 214 216 221 224 228 231
350 339 347 344 349 344 349 347 348 346 351 359 354 356 360 1 359 0 360 5 9 10 13 18 21 29 27 30 37 38 37 39 52 60 18 336 262 235 219 212 214 218 224 225 228
338 344 348 355 348 346 345 345 348 346 353 358 355 359 1 0 359 357 358 4 6 8 11 26 26 25 26 30 32 37 38 38 38 33 35 43 104 170 226 224 217 216 221 222 227
355 355 350 350 342 343 343 346 351 349 356 355 357 356 1 1 358 357 0 5 5 20 23 19 14 19 28 24 28 31 35 37 36 36 37 20 35 144 205 226 226 220 222 226 225
349 341 342 338 345 343 346 342 357 351 355 2 359 359 0 1 359 12 5 14 24 17 22 13 13 23 30 25 23 28 34 33 37 37 33 34 28 240 211 219 224 229 222 224 227
339 345 336 331 338 339 346 3 346 352 353 350 356 4 360 1 3 9 10 20 7 21 24 26 27 11 19 26 29 19 23 35 29 33 33 30 28 31 233 229 235 226 228 224 224
345 343 342 342 360 341 2 346 353 353 351 352 359 6 1 359 360 0 4 14 6 22 14 25 26 28 26 13 26 27 22 32 31 24 30 26 27 20 21 305 252 232 233 228 226
357 347 352 3 349 350 347 354 351 353 353 354 3 6 1 359 359 358 1 20 22 14 21 16 23 24 22 24 17 18 20 26 23 30 28 25 20 17 14 11 5 241 232 230 227
352 357 4 354 359 3 349 351 353 359 356 1 8 11 3 360 357 359 356 11 19 18 18 20 20 19 19 18 23 17 17 12 14 27 10 21 19 16 10 7 2 348 239 236 230
360 360 10 12 8 359 360 357 3 5 5 359 6 6 5 1 15 18 6 13 16 17 16 14 18 18 15 15 17 17 15 11 10 4 14 17 15 15 10 3 356 345 315 240 237
13 13 1 17 15 12 10 10 8 10 9 11 9 7 8 14 12 9 14 11 12 14 16 13 4 15 9 12 10 13 12 2 10 10 9 10 11 8 6 1 356 342 322 283 249